Flag for U.S.A. Weather past 2 weeks in New Haven, Connecticut, U.S.A.

Now
36 °F

Light snow. More clouds than sun.


Feels Like: 29 °F
Forecast: 32 / 37 °F
Wind: 9 mph from North

Location: Tweed-New Haven Airport

Current Time: Dec 21, 2014 at 10:56:36 AM

Latest Report: Dec 21, 2014 at 9:53 AM


Visibility: 3 mi

Pressure: 30.30 "Hg

Humidity: 79%

Dew point: 30 °F

Location of New HavenLocation

Historic Weather in New Haven — Graph

°F

New Haven temperature yesterday

Maximum temperature yesterday: 35 °F (at 8:53 PM)
Minimum temperature yesterday: 28 °F (at 7:53 AM)
Average temperature yesterday: 33 °F

Past Weeks' High & Low Weather Summary

 TemperatureHumidityPressure
High54 °F (Dec 17, 12:53 PM)89% (Dec 15, 3:04 AM)30.70 "Hg (Dec 15, 3:04 AM)
Low21 °F (Dec 8, 6:53 AM)25% (Dec 7, 2:53 PM)29.49 "Hg (Dec 10, 1:53 PM)
Average38 °F65%30.01 "Hg
* Reported Dec 6 9:53 AM — Dec 21 9:53 AM, New Haven, Weather by CustomWeather, © 2014

Note: Actual official high and low records may vary slightly from our data, if they occured in-between our weather recording intervals... More about our weather records

Advertising

New Haven weather history for previous 24 hours

 ConditionsComfort  
Time TempWeatherWind HumidityBarometerVisibility
9:53 AM
Dec 21
36 °FLight snow. More clouds than sun.9 mph79%30.30 "Hg3 mi
8:53 AM35 °FLow clouds.9 mph82%30.29 "Hg8 mi
8:00 AM35 °FLight snow. Low clouds.8 mph82%30.29 "Hg3 mi
6:53 AM35 °FOvercast.12 mph78%30.28 "Hg6 mi
5:53 AM35 °FMostly cloudy.9 mph78%30.27 "Hg5 mi
4:53 AM35 °FOvercast.9 mph78%30.26 "Hg10 mi
3:53 AM35 °FOvercast.8 mph75%30.26 "Hg10 mi
2:53 AM35 °FOvercast.3 mph72%30.27 "Hg9 mi
2:00 AM34 °FLight snow. Overcast.3 mph70%30.28 "Hg2 mi
12:53 AM35 °FOvercast.6 mph64%30.27 "Hg10 mi
11:53 PM
Dec 20
35 °FOvercast.3 mph61%30.27 "Hg10 mi
11:03 PM35 °FMostly cloudy.3 mph61%30.28 "Hg10 mi
10:53 PM35 °FMostly cloudy.3 mph61%30.28 "Hg10 mi
9:53 PM35 °FOvercast.3 mph61%30.29 "Hg10 mi
8:53 PM35 °FOvercast.No wind64%30.28 "Hg10 mi
7:53 PM34 °FMostly cloudy.3 mph67%30.27 "Hg10 mi
6:53 PM34 °FOvercast.No wind67%30.29 "Hg10 mi
5:53 PM33 °FOvercast.5 mph70%30.28 "Hg10 mi
4:53 PM34 °FMostly cloudy.7 mph64%30.26 "Hg10 mi
3:53 PM34 °FMore clouds than sun.6 mph61%30.26 "Hg10 mi
2:53 PM34 °FOvercast.8 mph61%30.25 "Hg10 mi
1:53 PM34 °FOvercast.7 mph59%30.25 "Hg10 mi
1:02 PM34 °FOvercast.5 mph59%30.27 "Hg10 mi
11:53 AM33 °FOvercast.7 mph58%30.27 "Hg10 mi
10:53 AM33 °FOvercast.8 mph58%30.28 "Hg10 mi
Weather by CustomWeather, © 2014

See weather overviewHow to use our weather pages